• Em Portugal
  • Lista de países
  • Para 7 dias
  • Temperatura da água
  • Mapas de satélite
  • Mapa do tempo
  • Widgets de tempo
  • user-avatar
    Iniciar Sessão

    Previsão horária em Lalitpur

    Hoje, 21 Setembro, Sexta-feira

    Tempo Temperatura Precipitação Vento Pressão Humidade
    00:00 +20°C° 0 mm 0 m/s 652 mmHg 88%
    01:00 +20°C° 0.9 mm 0 m/s 651 mmHg 89%
    02:00 +19°C° 0.9 mm 0 m/s 651 mmHg 89%
    03:00 +19°C° 0.9 mm 0 m/s 651 mmHg 90%
    04:00 +21°C° 1.1 mm 1 m/s 651 mmHg 90%
    05:00 +21°C° 1.1 mm 1 m/s 651 mmHg 90%
    06:00 +21°C° 1.1 mm 1 m/s 651 mmHg 90%
    07:00 +21°C° 2 mm 1 m/s 651 mmHg 89%
    08:00 +21°C° 2 mm 1 m/s 652 mmHg 89%
    09:00 +22°C° 2 mm 1 m/s 652 mmHg 88%
    10:00 +22°C° 1.5 mm 1 m/s 652 mmHg 85%
    11:00 +23°C° 1.5 mm 1 m/s 653 mmHg 82%
    12:00 +26°C° 0 mm 1 m/s 654 mmHg 65%
    13:00 +27°C° 0.1 mm 2 m/s 653 mmHg 62%
    14:00 +28°C° 0.1 mm 2 m/s 653 mmHg 58%
    15:00 +29°C° 0.1 mm 2 m/s 653 mmHg 55%
    16:00 +27°C° 0.6 mm 2 m/s 652 mmHg 64%
    17:00 +26°C° 0.6 mm 2 m/s 652 mmHg 72%
    18:00 +24°C° 0 mm 1 m/s 652 mmHg 81%
    19:00 +23°C° 1.7 mm 1 m/s 652 mmHg 84%
    20:00 +23°C° 1.7 mm 1 m/s 652 mmHg 86%
    21:00 +22°C° 1.7 mm 1 m/s 653 mmHg 89%
    22:00 +22°C° 1.8 mm 1 m/s 653 mmHg 89%
    23:00 +22°C° 1.8 mm 1 m/s 653 mmHg 90%

    Amanhã, 22 Setembro, Sábado

    Tempo Temperatura Precipitação Vento Pressão Humidade
    00:00 +22°C° 1.8 mm 1 m/s 653 mmHg 90%
    01:00 +21°C° 1.1 mm 1 m/s 653 mmHg 90%
    02:00 +21°C° 1.1 mm 1 m/s 653 mmHg 89%
    03:00 +21°C° 1.1 mm 1 m/s 653 mmHg 89%
    04:00 +21°C° 0.9 mm 1 m/s 653 mmHg 89%
    05:00 +21°C° 0.9 mm 1 m/s 653 mmHg 89%
    06:00 +21°C° 0.9 mm 1 m/s 653 mmHg 89%
    07:00 +22°C° 1 mm 1 m/s 653 mmHg 86%
    08:00 +23°C° 1 mm 1 m/s 654 mmHg 83%
    09:00 +23°C° 1 mm 1 m/s 655 mmHg 81%
    10:00 +24°C° 0.8 mm 1 m/s 655 mmHg 78%
    11:00 +25°C° 0.8 mm 2 m/s 655 mmHg 75%
    12:00 +26°C° 0.8 mm 2 m/s 655 mmHg 72%
    13:00 +26°C° 1 mm 2 m/s 654 mmHg 72%
    14:00 +26°C° 1 mm 2 m/s 654 mmHg 72%
    15:00 +26°C° 1 mm 2 m/s 653 mmHg 72%
    16:00 +25°C° 0.7 mm 1 m/s 653 mmHg 77%
    17:00 +24°C° 0.7 mm 1 m/s 652 mmHg 81%
    18:00 +23°C° 0.7 mm 1 m/s 652 mmHg 86%
    19:00 +23°C° 0.5 mm 1 m/s 652 mmHg 87%
    20:00 +22°C° 0.5 mm 1 m/s 653 mmHg 87%
    21:00 +20°C° 0.5 mm 0 m/s 653 mmHg 88%
    22:00 +20°C° 0.5 mm 0 m/s 653 mmHg 87%
    23:00 +21°C° 0.5 mm 1 m/s 653 mmHg 87%

    Depois de amanhã, 23 Setembro, Domingo

    Tempo Temperatura Precipitação Vento Pressão Humidade
    00:00 +21°C° 0.5 mm 1 m/s 653 mmHg 87%
    01:00 +21°C° 0.6 mm 1 m/s 653 mmHg 87%
    02:00 +21°C° 0.6 mm 1 m/s 653 mmHg 86%
    03:00 +21°C° 0.6 mm 1 m/s 652 mmHg 86%
    04:00 +21°C° 0.3 mm 1 m/s 652 mmHg 85%
    05:00 +21°C° 0.3 mm 1 m/s 652 mmHg 84%
    06:00 +21°C° 0.3 mm 1 m/s 652 mmHg 83%
    07:00 +22°C° 0.1 mm 1 m/s 653 mmHg 79%
    08:00 +24°C° 0.1 mm 1 m/s 654 mmHg 75%
    09:00 +25°C° 0.1 mm 1 m/s 654 mmHg 71%
    10:00 +26°C° 0.1 mm 1 m/s 654 mmHg 68%
    11:00 +27°C° 0.1 mm 1 m/s 654 mmHg 64%
    12:00 +28°C° 0.1 mm 2 m/s 654 mmHg 61%
    13:00 +28°C° 0.8 mm 2 m/s 653 mmHg 63%
    14:00 +27°C° 0.8 mm 2 m/s 653 mmHg 64%
    15:00 +27°C° 0.8 mm 2 m/s 652 mmHg 66%
    16:00 +26°C° 1 mm 2 m/s 652 mmHg 72%
    17:00 +25°C° 1 mm 1 m/s 651 mmHg 78%
    18:00 +24°C° 1 mm 1 m/s 651 mmHg 84%
    19:00 +23°C° 0.5 mm 1 m/s 651 mmHg 85%
    20:00 +22°C° 0.5 mm 1 m/s 651 mmHg 85%
    21:00 +22°C° 0.5 mm 1 m/s 652 mmHg 86%
    22:00 +22°C° 0.2 mm 1 m/s 652 mmHg 84%
    23:00 +21°C° 0.2 mm 1 m/s 652 mmHg 83%

    24 Setembro, Segunda-feira

    Tempo Temperatura Precipitação Vento Pressão Humidade
    00:00 +21°C° 0.2 mm 1 m/s 652 mmHg 82%
    01:00 +21°C° 0.1 mm 1 m/s 651 mmHg 81%
    02:00 +21°C° 0.1 mm 1 m/s 651 mmHg 81%
    03:00 +21°C° 0.1 mm 1 m/s 651 mmHg 80%
    04:00 +20°C° 0 mm 1 m/s 651 mmHg 78%
    05:00 +20°C° 0 mm 1 m/s 650 mmHg 77%
    06:00 +20°C° 0 mm 1 m/s 650 mmHg 76%
    07:00 +22°C° 0 mm 1 m/s 651 mmHg 71%
    08:00 +24°C° 0 mm 1 m/s 652 mmHg 65%
    09:00 +26°C° 0 mm 1 m/s 653 mmHg 60%
    10:00 +27°C° 0 mm 1 m/s 653 mmHg 57%
    11:00 +28°C° 0 mm 2 m/s 653 mmHg 54%
    12:00 +29°C° 0 mm 3 m/s 653 mmHg 51%
    13:00 +29°C° 0.6 mm 3 m/s 652 mmHg 55%
    14:00 +28°C° 0.6 mm 3 m/s 651 mmHg 58%
    15:00 +28°C° 0.6 mm 3 m/s 650 mmHg 61%
    16:00 +27°C° 0.6 mm 2 m/s 650 mmHg 69%
    17:00 +25°C° 0.6 mm 2 m/s 649 mmHg 77%
    18:00 +24°C° 0.6 mm 1 m/s 649 mmHg 84%
    19:00 +23°C° 0.5 mm 1 m/s 649 mmHg 86%
    20:00 +22°C° 0.5 mm 1 m/s 650 mmHg 87%
    21:00 +21°C° 0.5 mm 1 m/s 650 mmHg 89%
    22:00 +21°C° 0.2 mm 1 m/s 650 mmHg 88%
    23:00 +21°C° 0.2 mm 1 m/s 650 mmHg 87%

    25 Setembro, Terça-feira

    Tempo Temperatura Precipitação Vento Pressão Humidade
    00:00 +21°C° 0.2 mm 1 m/s 650 mmHg 86%
    01:00 +21°C° 0.1 mm 1 m/s 650 mmHg 84%
    02:00 +20°C° 0.1 mm 1 m/s 649 mmHg 83%
    03:00 +20°C° 0.1 mm 1 m/s 649 mmHg 82%
    04:00 +20°C° 0 mm 1 m/s 649 mmHg 80%
    05:00 +20°C° 0 mm 1 m/s 649 mmHg 79%
    06:00 +20°C° 0 mm 1 m/s 649 mmHg 77%
    07:00 +22°C° 0 mm 1 m/s 650 mmHg 72%
    08:00 +24°C° 0 mm 1 m/s 651 mmHg 67%
    09:00 +26°C° 0 mm 1 m/s 652 mmHg 61%
    10:00 +27°C° 0 mm 2 m/s 652 mmHg 58%
    11:00 +28°C° 0 mm 2 m/s 652 mmHg 55%
    12:00 +29°C° 0 mm 2 m/s 652 mmHg 52%
    13:00 +28°C° 0.5 mm 3 m/s 651 mmHg 56%
    14:00 +28°C° 0.5 mm 3 m/s 650 mmHg 60%
    15:00 +28°C° 0.5 mm 3 m/s 649 mmHg 64%
    16:00 +26°C° 0.5 mm 2 m/s 649 mmHg 72%
    17:00 +25°C° 0.5 mm 2 m/s 648 mmHg 79%
    18:00 +23°C° 0.5 mm 1 m/s 648 mmHg 86%
    19:00 +23°C° 0.1 mm 1 m/s 648 mmHg 88%
    20:00 +20°C° 0.1 mm 0 m/s 648 mmHg 90%
    21:00 +20°C° 0.1 mm 0 m/s 649 mmHg 91%
    22:00 +20°C° 0.2 mm 0 m/s 649 mmHg 91%
    23:00 +20°C° 0.2 mm 0 m/s 649 mmHg 91%

    26 Setembro, Quarta-feira

    Tempo Temperatura Precipitação Vento Pressão Humidade
    00:00 +19°C° 0.2 mm 0 m/s 649 mmHg 91%
    01:00 +19°C° 0.4 mm 0 m/s 648 mmHg 90%
    02:00 +19°C° 0.4 mm 0 m/s 648 mmHg 90%
    03:00 +19°C° 0.4 mm 0 m/s 648 mmHg 89%
    04:00 +19°C° 0.1 mm 0 m/s 648 mmHg 89%
    05:00 +21°C° 0.1 mm 1 m/s 648 mmHg 88%
    06:00 +21°C° 0.1 mm 1 m/s 648 mmHg 87%
    07:00 +22°C° 0.1 mm 1 m/s 649 mmHg 83%
    08:00 +24°C° 0.1 mm 1 m/s 650 mmHg 79%
    09:00 +25°C° 0.1 mm 1 m/s 651 mmHg 75%
    10:00 +26°C° 0.4 mm 2 m/s 651 mmHg 72%
    11:00 +27°C° 0.4 mm 2 m/s 651 mmHg 69%
    12:00 +28°C° 0.4 mm 2 m/s 651 mmHg 67%
    13:00 +27°C° 1.4 mm 2 m/s 650 mmHg 68%
    14:00 +27°C° 1.4 mm 2 m/s 649 mmHg 69%
    15:00 +27°C° 1.4 mm 2 m/s 649 mmHg 71%
    16:00 +26°C° 1.3 mm 2 m/s 648 mmHg 77%
    17:00 +24°C° 1.3 mm 1 m/s 648 mmHg 83%
    18:00 +23°C° 1.3 mm 1 m/s 648 mmHg 89%
    19:00 +23°C° 0.7 mm 1 m/s 648 mmHg 90%
    20:00 +20°C° 0.7 mm 0 m/s 649 mmHg 91%
    21:00 +20°C° 0.7 mm 0 m/s 649 mmHg 92%
    22:00 +20°C° 0.6 mm 0 m/s 649 mmHg 92%
    23:00 +19°C° 0.6 mm 0 m/s 649 mmHg 91%
    Mostrar mais